NOAA 16 DEB, 41126

Orbit data source: Space-Track

NOAA 16 DEB, 41126 is space debris in SSO originally from a launch on Thu, 21 Sep 2000 UTC launched from the Air Force Western Test Range (AFWTR). Debris objects in space refer to the collection of defunct objects orbiting the Earth. Examples of debris include non-operational satellites, rocket bodies, and fragments generated from explosions, collisions, or faulty payload assembly.

Loading next visibility...
Identifier
41126, 2000-055BH
Orbit
SSO
Country
Flag of USUS
Related business
Manufacturer
Unknown
Mission
Spacecraft
Bus & Motor
Unknown
Mass
Unknown
Launch date (UTC)
2000-09-21 (26 years ago)
Launch vehicle
Unknown
Launch site
Air Force Western Test Range (AFWTR)
Object type
Payload
Rocket body
Debris
Shape & HBR
Unknown shape, 0.1 m
Radar Cross Section
Medium (>0.1 m² and <1 m²)

Expand to show TLE details & history
Last TLE update: 19 hours ago

TLE from 19 hours ago
0 NOAA 16 DEB
1 41126U 00055BH  26235.46756308  .00001925  00000-0  10107-2 0  9999
2 41126  98.7692 236.9454 0065472 162.1327 198.2170 14.14214070548847
Epoch: 2026-08-23T11:13Z
TLE epoch observation values (Epoch: 2026-08-23T11:13:17.450Z)
Latitude
0.00008°
Longitude
96.85948°
Altitude
892.852 km
Speed
7.383 km/s
True Right ascension
15h 47m 46s
True Declination
0° 00' 00"
Sunlit
Object was in daylight at epoch
Visualization orbit readout
Latitude
Unknown
Longitude
Unknown
Altitude
Unknown
Speed
Unknown
Apparent Right ascension
Unknown
Apparent Declination
Unknown
Sunlit
N/A
Visualization observer readout
Local Sidereal Time
21:35:26
Azimuth
Unknown
Elevation
Unknown
Doppler factor
Unknown
Orbital elements
Apogee altitude
889.429 km
Perigee altitude
794.883 km
Semi-major axis
7,220.293 km
Eccentricity
0.00655
Inclination
98.7692°
RAAN
236.9454°
Arg. of periapsis
162.1327°
True anomaly
197.98427°
Mean anomaly
198.217°
Eccentric anomaly
198.10045°
Mean motion
3.53762 °/min
Orbital period
101.76 mins
BSTAR
0.0010107
Loading maneuver chart data...
Computing Atmospheric mass density...
Loading historical data...
Loading historical data...
Loading historical data...
Loading historical data...
Loading historical data...
Loading historical data...
Loading historical data...

Documentation

Showing up to 5 results
|